Starlink 32318

operational
NORAD ID: 61864 Int'l Des: 2024-202 Owner: SPXS Country: US Constellation: starlink
LEOCIRCULAR

About Starlink 32318

Description loading...

Live Position

Loading 3D Globe...

Upcoming Passes

Altitude History

Altitude vs Time

uPlot chart will show altitude changes over time

Two-Line Element Set

1 61864U 24202V 25310.75987557 .00003967 00000-0 15353-3 0 9994
2 61864 42.9969 212.5304 0000672 293.7539 66.3243 15.27591260 56537
Epoch: Nov 6, 2025 • Age: 22 hours

Current Status

Altitude 483.0 km
Velocity 7.63 km/s
Sub-Earth Point -3.55°S, 86.31°W
Launch Date Nov 7, 2024
Age 0.9 years
Type internet

Technical Details

Classification Payload
Mass 730.00 kg
Dry Mass 700.00 kg
Total Mass 730.00 kg
Length 0.30 m
Diameter 4.10 m
Span 29.00 m
Shape Box + pan
Manufacturer SPXS
Bus Type Starlink V2M
Phase Status In Orbit
Owner/State SPXS/US

Large Constellations

Loading constellations...